Current weather by "City, St" or "zip code"  
 

Current Conditions: Cheyenne Mountain, CO

Mostly Cloudy


41.0 F

Last Updated on Apr 23 2021, 3:58 am MDT
Humidity: 51%
Wind Speed: W 11.5 mph
Barometer 29.77 in
Dewpoint: 23.7 F
Visibility: 10.00 mi
Precip: --
Heat Index: NA
Wind Chill: 34 F
Current conditions at:

Cheyenne Mountain, CO (KCWN)

Lat: 38.74343 Lon: 104.84334

Local Radar Image active severe weather and emergency alerts image image weather storm and storm spotter reports image weather observation monitoring service image
Local
Radar
Active
Alerts
Storm Reports Obs
Monitoring

Sign-up For Email & Text Message Weather Alert Notification Services



Advertise Here

Observation History for Cheyenne Mountain, CO


Time Wind
(mph)
Vis
(mi)
Weather Precip (in) Temperature (F) Relative
Humidity
Wind
Chill
(F)
Heat
Index
(F)
Pressure
Air Dwpt altimeter
(in)
sea level
(mb)
Rmks
3:58 am MDT W 11.5 10.00 Mostly Cloudy -- 41.0 23.7 51% 34 NA 29.77 996.4
2:58 am MDT W 10.4 10.00 Light Drizzle -- 42.0 26.6 55% 36 NA 29.79 996.4
1:58 am MDT W 10.4 10.00 Overcast -- 44.0 23.4 43% 38 NA 29.79 995.8
12:58 am MDT W 10.4 10.00 Mostly Cloudy -- 42.0 27.0 54% 36 NA 29.81 996.5
11:58 pm MDT W 11.5 G 18.4 10.00 Light Showers Rain -- 42.0 29.1 61% 36 NA 29.82 998.1
10:58 pm MDT W 11.5 10.00 Light Showers Rain -- 42.0 30.2 62% 36 NA 29.81 M
9:58 pm MDT W 8.1 10.00 Light Rain -- 40.0 32.4 74% 35 NA 29.83 M
8:58 pm MDT NW 10.4 10.00 Mostly Cloudy -- 42.0 30.0 63% 36 NA 29.80 998.0
7:56 pm MDT N 12.7 G 19.6 10.00 Mostly Cloudy -- 44.0 29.7 58% 38 NA 29.76 999.7
6:56 pm MDT NW 16.1 G 21.9 10.00 Mostly Cloudy -- 44.0 28.8 55% 37 NA 29.73 999.3
5:56 pm MDT NW 11.5 G 17.3 10.00 Mostly Cloudy -- 44.0 30.0 58% 38 NA 29.71 998.6
4:58 pm MDT NW 13.8 10.00 Mostly Cloudy -- 45.0 31.3 58% 39 NA 29.71 998.6
3:58 pm MDT NW 13.8 G 23.0 10.00 Mostly Cloudy -- 49.0 29.8 48% 44 NA 29.68 996.9
2:58 pm MDT NE 13.8 G 18.4 10.00 Mostly Cloudy -- 53.0 26.8 37% 49 NA 29.67 995.9
1:58 pm MDT NE 4.6 10.00 Mostly Cloudy -- 52.0 14.9 23% 51 NA 29.66 995.0
12:58 pm MDT S 20.7 G 31.1 10.00 Mostly Cloudy and Breezy -- 52.0 19.9 28% 46 NA 29.66 995.0
11:58 am MDT SE 11.5 G 18.4 10.00 Mostly Cloudy -- 47.0 24.4 40% 42 NA 29.69 996.0
10:56 am MDT N 0.0 10.00 Fair -- 37.0 25.7 63% NA NA 29.69 997.9
9:56 am MDT E 3.5 10.00 Fair -- 35.0 27.3 72% NA NA 29.69 997.9
7:58 am MDT N 0.0 10.00 Fair -- 25.0 19.2 78% NA NA 29.71 999.8
6:58 am MDT N 0.0 10.00 Fair -- 21.0 19.6 96% NA NA 29.71 1000.4
4:58 am MDT S 9.2 10.00 Fair -- 20.0 18.0 92% 9 NA 29.74 1001.4
3:58 am MDT N 0.0 10.00 Fair -- 21.0 18.0 89% NA NA 29.78 1002.8

Regional Weather Observation


Cheyenne Mountain, CO (KCWN)

Mostly Cloudy
41.0 F

City of Colorado Springs Municipal Airport, CO (KCOS)

Mostly Cloudy
43.0 F

Meadow Lake Airport, CO (KFLY)

Overcast
39.0 F

Butts Army Airfield (Fort Carson), CO (KFCS)

Overcast
41.0 F

Wilkerson Pass, CO (K4BM)

Fog/Mist
23.0 F

Fremont County Airport, CO (K1V6)

Overcast
45.0 F

Advertise Here


Advertise Here